[Iaude] MPEC F54: 2024 FP1 [a=1.21,e=0.23,i=8.6,H=25.1]
    mpec at cfa.harvard.edu 
    mpec at cfa.harvard.edu
       
    Thu Mar 21 03:18:03 EDT 2024
    
    
  
M.P.E.C. 2024-F54                                Issued 2024 March 21, 07:16 UT
     The Minor Planet Electronic Circulars contain information on unusual
         minor planets, routine data on comets and natural satellites,
         and occasional editorial announcements.  They are published
    on behalf of Division F of the International Astronomical Union by the
          Minor Planet Center, Smithsonian Astrophysical Observatory,
                          Cambridge, MA 02138, U.S.A.
			  
             Prepared using the Tamkin Foundation Computer Network
                              MPC at CFA.HARVARD.EDU
            URL https://www.minorplanetcenter.net/    ISSN 1523-6714
                                    2024 FP1                                    
Observations:
     K24F01P* C2024 03 18.48311513 42 18.163-24 17 26.47         20.51wXEF054F51
     K24F01P  C2024 03 18.49282413 42 17.587-24 15 36.78         20.16wXEF054F51
     K24F01P  C2024 03 18.50254413 42 17.018-24 13 47.58         20.17wXEF054F51
     K24F01P  C2024 03 18.61657913 42 10.711-23 52 12.43         20.62GVEF054F51
     K24F01P  C2024 03 18.61740013 42 10.666-23 52 03.44         20.71GVEF054F51
     K24F01P  C2024 03 19.20678813 42 22.49 -22 01 34.0                WEF054X09
     K24F01P  C2024 03 19.21725713 42 21.94 -21 59 40.4                WEF054X09
     K24F01P |C2024 03 19.35741013 42 14.460-21 34 20.20         19.9 GVEF054807
     K24F01P |C2024 03 19.35961013 42 14.330-21 33 56.10         20.2 GVEF054807
     K24F01P |C2024 03 19.36181013 42 14.220-21 33 32.20         20.2 GVEF054807
     K24F01P  C2024 03 19.53992913 42 17.370-21 03 43.98         19.94GVEF054F51
     K24F01P  C2024 03 19.54074613 42 17.316-21 03 35.14         19.89GVEF054F51
     K24F01P KC2024 03 21.27813013 42 15.66 -16 09 39.1          20.3 GVEF054H21
     K24F01P KC2024 03 21.28092913 42 15.53 -16 09 12.2          20.4 GVEF054H21
     K24F01P KC2024 03 21.28372713 42 15.40 -16 08 45.2          20.5 GVEF054H21
     K24F01P KC2024 03 21.28512613 42 15.32 -16 08 31.4          20.5 GVEF054H21
Observer details:
807 Cerro Tololo Observatory, La Serena.  Observers T. Linder, R. Holmes.
    0.61-m f/6.8 Ritchey-Chretien + CCD.
F51 Pan-STARRS 1, Haleakala.  Observers J. Herman, T. Lowe, P. Minguez, A.
    Schultz, I. Smith.  Measurers K. Chambers, T. de Boer, J. Fairlamb, H.
    Gao, M. Huber, C.-C. Lin, E. Magnier, Y. Ramanjooloo, R. Wainscoat, R.
    Weryk.  1.8-m Ritchey-Chretien + CCD.
H21 Astronomical Research Observatory, Westfield.  Observer R. Holmes.
    Measurers T. Linder, R. Holmes, L. Horn.  0.76-m f/3.0 astrograph + CCD.
X09 Deep Random Survey, Rio Hurtado.  Observers A. Schnabel, D. Ruhela.
    Measurer S. Deen.  0.43-m reflector + CMOS.
Orbital elements:
2024 FP1                                                 Earth MOID = 0.0409 AU
Epoch 2024 Mar. 31.0 TT = JDT 2460400.5                 MPC                     
M  51.11773              (2000.0)            P               Q                  
n   0.73746567     Peri.  291.67391     -0.44134068     -0.89726146             
a   1.2133186      Node   184.56810     +0.86844203     -0.42376812             
e   0.2288036      Incl.    8.55211     +0.22589120     -0.12386464             
P   1.34           H   25.13          G   0.15           U   7                  
Residuals in seconds of arc
240318 F51  0.0   0.3-    240319 X09  0.2-  0.5+    240321 H21  0.2-  0.2-
240318 F51  0.1-  0.2+    240319 807  0.3+  0.1+    240321 H21  0.0   0.1-
240318 F51  0.1-  0.0     240319 807  0.0   0.1+    240321 H21  0.2+  0.0
240318 F51  0.1+  0.2+    240319 807  0.1-  0.1-    240321 H21  0.0   0.3+
240318 F51  0.0   0.2-    240319 F51  0.1+  0.1-
240319 X09  0.1+  0.4-    240319 F51  0.0   0.0
Ephemeris:
2024 FP1                 a,e,i = 1.21, 0.23, 9                   q = 0.9357
Date    TT    R. A. (2000) Decl.     Delta      r    Elong.  Phase     V
2024 02 20    02 29 55.2 -76 02 41   0.08412 0.9675    73.1   102.1    23.4
...
2024 03 06    13 26 12.7 -68 50 22   0.05563 1.0048   101.7    75.2    21.5
...
2024 03 14    13 40 52.1 -39 42 02   0.05378 1.0289   129.0    48.7    20.7
...
2024 03 20    13 42 18.8 -19 41 26   0.06157 1.0484   147.7    30.5    20.5
2024 03 21    13 42 15.4 -16 52 59   0.06354 1.0517   150.2    28.1    20.5
2024 03 22    13 42 08.6 -14 14 32   0.06569 1.0551   152.5    25.8    20.5
...
2024 03 28    13 40 32.1 -01 39 32   0.08148 1.0757   161.7    16.9    20.7
...
2024 04 05    13 37 02.2 +08 25 28   0.1084  1.1042   162.4    15.9    21.4
...
2024 04 20    13 31 15.0 +16 05 53   0.1718  1.1590   151.9    24.1    22.8
A. U. Tomatic                (C) Copyright 2024 MPC           M.P.E.C. 2024-F54
    
    
More information about the Iaude
mailing list